VARKAUS current weather conditions

sailwx.info

Wind from 310 at 11 knots

Air temperature 20.0° C
Dewpoint 12.0° C

Last reported at 2015-Jul-04 17:20 UTC.
Time now 2015-Jul-04 19:01 UTC

Location: N 62°10' E 027°52'.
View on Google Maps.

See reports from other nearby stations

  
Tides and Currents Weather Stations Pressure Air Temp Water Temp Dewpoint Dewpoint Depression Visibility Wind Speed Wind Dir Waves Ship Positions
date/time (UTC)wind fromknots sea level pressurealtimeterstation pressurevisibilityair tempwater tempwave heightnotes
2015-Jul-04 17:20 310 11 20.0
2015-Jul-04 16:50 330 11 21.0
2015-Jul-04 16:20 310 11 21.0
2015-Jul-04 15:50 330 13 21.0
2015-Jul-04 15:20 320 12 22.0
2015-Jul-04 14:50 310 10 23.0
2015-Jul-04 14:20 320 13 5.422.0
2015-Jul-04 13:50 310 12 25.0
2015-Jul-04 13:20 300 12 24.0
2015-Jul-04 12:50 300 11 25.0
2015-Jul-04 12:20 290 11 24.0
2015-Jul-04 11:50 300 12 24.0
2015-Jul-04 11:20 300 11 24.0
2015-Jul-04 10:50 290 10 24.0
2015-Jul-04 10:20 260 8 5.424.0
2015-Jul-04 09:50 280 9 5.423.0
2015-Jul-04 09:20 310 9 5.423.0
2015-Jul-04 08:50 290 11 5.423.0
2015-Jul-04 08:20 300 13 5.423.0
2015-Jul-04 07:50 280 9 5.423.0
2015-Jul-04 07:20 310 12 23.0
2015-Jul-04 06:50 300 9 5.422.0
2015-Jul-04 06:20 310 8 22.0
2015-Jul-04 05:50 300 9 21.0
2015-Jul-04 05:20 290 9 21.0
2015-Jul-04 04:50 270 8 20.0
2015-Jul-04 04:20 280 7 19.0
2015-Jul-04 03:50 270 7 19.0
2015-Jul-04 03:20 270 6 19.0
2015-Jul-04 02:50 250 4 19.0
2015-Jul-04 02:20 250 4 5.418.0 Light rain showers.
2015-Jul-04 01:50 240 6 5.418.0 Light rain showers.
2015-Jul-04 01:20 250 5 19.0
2015-Jul-04 00:50 250 6 19.0
2015-Jul-04 00:20 240 4 19.0
2015-Jul-03 23:50 250 4 19.0
2015-Jul-03 23:20 260 4 20.0
2015-Jul-03 22:50 240 3 20.0
2015-Jul-03 22:20 250 5 21.0
2015-Jul-03 21:50 270 6 22.0
2015-Jul-03 21:20 270 5 22.0
2015-Jul-03 20:50 250 5 22.0
2015-Jul-03 20:20 270 5 23.0
2015-Jul-03 19:50 270 7 24.0
2015-Jul-03 19:20 260 9 24.0
2015-Jul-03 18:50 260 6 25.0
2015-Jul-03 18:20 270 5 26.0
2015-Jul-03 17:50 260 6 26.0
2015-Jul-03 17:20 270 9 27.0
2015-Jul-03 16:50 260 10 27.0
2015-Jul-03 16:20 280 9 28.0
2015-Jul-03 15:50 270 11 28.0
2015-Jul-03 15:20 290 10 28.0
2015-Jul-03 14:50 280 12 28.0
2015-Jul-03 14:20 260 11 29.0
2015-Jul-03 13:50 290 11 29.0
2015-Jul-03 13:20 260 9 29.0
2015-Jul-03 12:50 270 9 28.0
2015-Jul-03 12:20 260 9 28.0
2015-Jul-03 11:50 280 13 28.0
2015-Jul-03 11:20 280 12 28.0
2015-Jul-03 10:50 270 9 28.0
2015-Jul-03 10:20 260 9 26.0
2015-Jul-03 09:50 260 10 26.0
2015-Jul-03 09:20 260 10 26.0
2015-Jul-03 08:50 260 6 26.0
2015-Jul-03 08:20 260 6 25.0
2015-Jul-03 07:50 260 6 24.0
2015-Jul-03 07:20 260 6 23.0
2015-Jul-03 06:50 250 6 23.0
2015-Jul-03 06:20 240 5 22.0
2015-Jul-03 05:50 230 5 21.0
2015-Jul-03 05:20 230 4 19.0
2015-Jul-03 04:50 240 4 19.0
2015-Jul-03 04:20 220 4 19.0
2015-Jul-03 03:50 17.0
2015-Jul-03 03:20 16.0
2015-Jul-03 02:50 15.0
2015-Jul-03 02:20 3.814.0 Mist.
2015-Jul-03 01:50 0.213.0 Patches of fog.
2015-Jul-03 01:20 0.513.0 Mist.
2015-Jul-03 00:50 0.213.0 Patches of fog.
2015-Jul-03 00:20 1.314.0 Patches of mist.
2015-Jul-02 23:50 15.0
2015-Jul-02 23:20 15.0
2015-Jul-02 22:50 16.0
2015-Jul-02 22:20 16.0
2015-Jul-02 21:50 5.416.0 Light rain showers.
2015-Jul-02 21:20 150 4 5.416.0 Rain showers.
2015-Jul-02 20:50 140 4 16.0
2015-Jul-02 20:20 080 3 5.416.0 Light rain.
2015-Jul-02 19:50 140 4 17.0
2015-Jul-02 19:20 17.0